SCP
0 0 0 0 0 0 0 0 0 0 0 0 0 1 1 1 1 1 1 1 1 1 1 1 1 1 1 1 1 1 1 1 2 2 2 2 2 2 2 2 1 1 1 1
0 0 0 0 0 0 0 0 0 0 0 0 0 1 1 1 1 1 1 1 1 1 1 1 1 1 1 1 1 1 1 1 1 2 2 2 2 2 2 2 2 2 2 1
0 0 0 0 0 0 0 0 0 0 0 1 1 1 1 1 1 1 1 1 1 1 1 1 1 1 1 1 1 1 1 1 1 1 1 1 1 1 2 2 2 2 2 2
0 0 0 0 0 0 0 0 0 0 0 0 1 1 1 1 1 1 1 1 1 1 1 1 1 1 1 1 1 1 1 1 1 1 1 1 1 1 1 1 1 1 1 1
0 0 0 0 0 0 0 0 0 0 0 0 1 1 1 1 1 1 1 1 1 1 1 1 1 1 1 1 1 1 1 1 1 1 1 1 1 1 1 1 1 1 1 1
0 0 0 0 0 0 0 0 1 1 0 0 1 1 1 1 1 1 1 1 1 1 1 1 1 1 1 1 1 1 1 1 1 1 1 1 1 1 1 1 1 1 1 1
0 0 0 0 0 0 1 1 1 1 1 1 1 1 1 1 1 1 1 1 1 1 1 1 1 1 1 2 2 2 2 2 2 1 1 1 1 1 1 1 1 1 1 1
0 0 0 0 0 1 1 1 1 1 1 1 1 1 1 1 1 1 1 1 1 1 1 1 1 1 1 2 2 2 2 2 2 2 1 1 1 1 1 1 1 1 1 1
1 1 1 1 1 1 1 1 1 1 1 1 1 1 1 1 1 1 1 1 1 1 1 2 2 1 2 2 2 3 3 2 2 2 1 1 1 1 1 1 0 0 0 0
1 1 1 1 1 1 1 1 1 1 1 1 1 1 1 1 1 1 1 1 1 1 1 2 2 2 2 2 2 3 2 2 2 1 1 1 1 1 1 0 0 0 0 0
1 1 1 1 1 1 1 1 1 1 1 1 1 1 1 1 1 1 1 1 1 1 1 2 2 2 2 2 2 2 2 2 1 1 1 1 1 1 0 0 0 0 0 0
1 1 1 1 1 1 1 1 1 1 1 1 1 1 1 1 1 1 1 1 1 1 1 1 2 2 2 2 2 2 1 1 1 1 1 1 1 1 0 0 0 0 0 0
1 1 1 1 1 0 1 1 1 1 1 1 1 1 1 1 1 1 1 1 1 1 1 1 1 1 1 1 1 1 1 1 1 1 1 1 1 1 0 0 0 0 0 0
0 0 0 0 0 0 0 1 1 1 1 1 1 1 1 1 1 1 1 1 1 1 1 1 1 1 1 1 1 1 1 1 1 1 1 1 1 1 0 0 0 0 0 0
0 0 0 0 0 0 0 0 1 1 1 1 1 1 1 1 1 1 1 1 1 1 1 1 1 1 1 1 1 1 1 1 1 1 1 0 0 0 0 0 0 0 0 0
0 0 0 0 0 0 0 0 0 0 0 1 1 1 1 1 1 1 1 1 1 1 1 1 1 1 1 1 1 1 1 0 0 0 0 0 0 0 0 0 0 0 0 0
0 0 0 0 0 0 0 0 0 0 0 0 0 0 1 1 1 1 1 1 1 1 1 1 1 1 1 1 1 0 0 0 0 0 0 0 0 0 0 0 0 0 0 0
0 0 0 0 0 0 0 0 0 0 0 0 0 0 0 1 1 1 1 1 1 1 1 1 1 1 1 1 0 0 0 0 0 0 0 0 0 0 0 0 0 0 0 0
0 0 0 0 0 0 0 0 0 0 0 0 0 0 0 1 1 1 1 1 1 1 1 1 1 1 1 1 0 0 0 0 0 0 0 0 0 0 0 0 0 0 0 0
0 0 0 0 0 0 0 0 0 0 0 0 0 0 0 0 1 1 1 1 1 1 1 0 0 0 0 0 0 0 0 0 0 0 0 0 0 0 0 0 0 0 0 0
0 0 0 0 0 0 0 0 0 0 0 0 0 0 0 0 0 0 0 0 1 1 0 0 0 0 0 0 0 0 0 0 0 0 0 0 0 0 0 0 0 0 0 0
0 0 0 0 0 0 0 0 0 0 0 0 0 0 0 0 0 0 0 0 0 0 0 0 0 0 0 0 0 0 0 0 0 0 0 0 0 0 0 0 0 0 0 0
0 0 0 0 0 0 0 0 0 0 0 0 0 0 0 0 0 0 0 0 0 0 0 0 0 0 0 0 0 0 0 0 0 0 0 0 0 0 0 0 0 0 0 0
1 0 0 0 0 0 0 0 0 0 0 0 0 0 0 0 0 0 0 0 0 0 0 0 0 0 0 0 0 0 0 0 0 0 0 0 0 0 0 0 0 0 0 0
0 0 0 0 0 0 0 0 0 0 0 0 0 0 0 0 0 0 0 0 0 0 0 0 0 0 0 0 0 0 0 0 0 0 0 0 0 0 0 0 0 0 0 0
0 0 0 0 0 0 0 0 0 0 0 0 0 0 0 0 0 0 0 0 0 0 0 0 0 0 0 0 0 0 0 0 0 0 0 0 0 0 0 0 0 0 0 0
0 0 0 0 0 0 0 0 0 0 0 0 0 0 0 0 0 0 0 0 0 0 0 0 0 0 0 0 0 0 0 0 0 0 0 0 0 0 0 0 0 0 0 0
Wind_Speed
11 11 11 9 9 8 8 6 5 4 3 3 0 3 5 5 4 5 5 6 7 6 7 6 5 4 4 3 2 2 2 2 2 1 1 1 1 1 1 1 1 1 1 1
11 11 11 10 8 8 7 6 5 4 2 4 3 3 4 4 4 5 4 5 6 7 8 6 5 4 3 3 3 3 2 2 2 1 1 1 1 1 1 1 1 1 1 1
10 11 11 11 7 7 7 5 6 4 3 4 3 3 4 3 3 4 4 4 5 6 6 6 4 4 3 3 3 3 2 2 1 1 1 0 1 1 1 1 1 1 1 1
9 9 11 5 6 6 5 3 2 3 4 4 5 4 3 3 3 4 4 4 4 4 5 5 5 4 3 3 3 3 2 2 2 1 1 1 0 0 1 1 1 1 0 0
8 10 9 6 6 6 5 3 0 2 4 6 7 6 4 5 4 4 4 4 3 3 5 4 4 4 3 3 3 3 2 1 2 1 1 1 1 0 1 0 1 1 1 1
9 11 9 5 5 6 5 3 1 2 4 5 3 2 2 4 5 5 5 4 3 3 4 4 3 3 3 3 2 2 2 1 2 1 0 0 1 0 0 0 1 1 1 1
12 10 5 3 5 7 4 1 4 4 4 4 2 2 4 5 5 4 4 4 4 4 4 4 3 3 3 2 2 1 1 1 1 1 1 1 1 0 0 0 0 1 1 1
9 9 5 3 2 1 4 5 5 5 6 5 5 5 5 5 4 3 3 4 4 4 4 4 3 3 3 2 2 1 1 1 1 1 0 1 1 1 1 1 1 1 1 1
2 1 2 3 4 5 5 5 4 5 6 5 5 5 4 5 4 3 4 4 3 4 4 4 4 3 3 2 2 2 2 1 1 1 1 1 2 2 1 1 1 1 1 1
1 1 1 3 4 4 5 4 4 4 4 4 4 4 4 5 4 3 4 4 3 4 4 4 4 4 3 2 2 2 2 1 1 1 2 2 1 1 1 1 1 1 1 1
3 2 2 2 2 4 4 3 3 3 4 3 4 4 4 4 4 3 3 3 3 3 4 4 4 4 4 3 2 2 1 1 1 1 2 2 2 1 1 2 2 1 1 1
3 2 2 3 2 3 3 3 3 2 3 4 4 4 4 4 4 3 4 3 3 3 3 3 4 3 3 2 2 1 0 0 0 0 1 1 2 2 5 3 4 4 3 2
1 1 2 3 2 3 3 3 2 2 3 4 4 4 4 5 4 4 3 3 2 2 3 3 3 3 2 2 1 1 1 1 1 0 0 0 1 1 1 2 3 3 2 2
3 2 3 2 2 2 3 3 3 3 3 3 3 3 4 4 4 4 2 2 2 2 2 1 2 2 2 1 1 1 1 1 1 1 1 0 0 0 1 1 1 1 1 3
2 1 1 1 2 2 2 2 2 3 2 2 3 4 4 3 4 3 2 2 2 2 1 1 1 2 2 2 1 1 1 1 1 1 1 1 1 1 1 0 1 1 1 2
2 2 2 2 2 1 1 1 2 2 2 3 3 3 3 3 3 3 2 2 2 2 1 1 2 2 2 1 1 0 1 1 1 1 1 1 1 1 1 1 1 0 0 1
2 3 3 3 2 2 1 1 2 2 3 3 3 3 3 3 2 2 2 2 2 2 1 1 1 1 1 1 0 0 0 1 1 1 1 1 1 1 1 1 1 0 0 1
3 2 2 2 2 2 1 1 2 3 3 3 3 2 2 2 2 2 1 2 2 2 1 1 1 1 1 1 1 1 1 0 1 0 0 0 1 1 1 1 1 0 0 1
2 3 2 2 2 2 2 2 2 3 3 2 2 1 2 2 2 2 2 2 1 1 1 1 1 1 0 1 2 2 1 1 1 0 1 1 1 1 1 1 1 1 1 0
3 3 2 3 3 3 3 3 2 2 1 2 1 1 2 1 2 2 2 2 1 1 1 1 1 1 1 1 2 2 2 1 1 1 1 1 1 1 1 1 1 1 1 1
3 3 3 3 3 3 3 2 2 1 1 1 1 1 1 1 2 2 2 1 2 2 1 2 1 1 1 2 4 3 2 2 1 1 1 1 1 1 1 1 1 1 1 1
3 3 3 3 2 2 2 2 1 1 1 0 0 1 1 2 2 2 2 2 3 2 1 1 1 2 2 4 3 3 2 2 2 1 1 0 1 1 1 1 1 1 1 2
2 2 2 2 1 1 1 1 1 0 0 1 1 1 1 1 2 2 2 2 2 2 1 1 2 1 2 3 3 3 3 2 2 2 1 1 1 1 2 2 1 2 1 2
2 2 1 1 1 1 0 0 1 1 2 2 2 2 2 2 2 1 2 4 4 3 1 3 4 3 4 4 3 2 3 3 2 2 2 2 1 1 1 2 2 2 2 2
2 1 1 1 1 1 2 2 2 2 2 2 2 2 2 1 1 1 1 3 4 4 2 4 6 5 5 4 2 2 2 2 2 3 2 2 2 1 2 2 2 2 2 2
2 2 2 2 2 2 2 2 2 2 2 2 2 1 1 1 1 1 1 2 3 4 3 2 3 4 4 3 2 2 2 1 2 2 2 2 2 2 2 2 2 2 2 2
3 2 2 2 3 2 1 1 2 2 2 2 2 1 1 1 1 1 1 1 2 2 2 2 2 2 2 1 1 2 1 1 1 1 1 2 2 1 1 1 1 2 2 2
Wind_Direction
259 267 265 260 257 258 267 275 273 253 224 144 105 68 73 88 97 90 97 110 116 126 118 115 112 112 114 104 96 102 108 118 120 132 151 160 177 187 187 210 208 206 220 227
263 261 265 263 254 256 258 264 254 230 182 145 151 102 92 93 105 104 114 118 116 116 116 116 115 114 106 107 104 97 100 109 113 125 134 166 184 180 181 202 205 201 215 221
265 267 263 259 257 251 255 258 250 225 172 154 118 111 111 117 128 118 119 110 105 115 120 122 125 115 112 103 98 97 94 77 80 125 141 151 228 176 197 216 200 198 221 205
259 265 256 264 297 278 262 280 257 152 150 147 127 117 112 108 103 102 116 107 105 120 127 131 130 122 121 130 114 103 89 74 56 41 100 121 115 92 224 224 220 194 225 140
256 252 250 245 262 266 262 252 285 151 118 108 106 99 75 61 72 85 91 102 105 114 117 114 115 116 124 122 127 125 114 95 84 56 39 48 103 341 275 252 214 193 189 164
250 255 252 258 282 279 247 212 116 129 115 113 110 135 98 73 77 68 73 74 81 86 91 93 96 107 122 127 116 120 118 126 127 128 132 4 74 67 308 275 229 182 142 155
247 252 253 278 287 275 248 115 38 54 88 95 92 79 103 83 78 68 80 87 90 82 76 75 78 85 94 104 109 97 104 108 112 116 152 127 103 83 345 215 172 201 186 190
244 249 251 338 301 5 77 77 74 72 78 78 87 92 96 91 87 81 84 86 85 84 84 74 73 80 83 70 63 70 82 89 99 107 180 119 114 129 193 213 179 174 162 130
277 241 60 36 69 93 96 89 85 87 89 89 97 96 88 89 91 83 76 77 85 88 86 77 72 74 81 64 62 80 78 71 82 118 122 134 157 169 189 185 191 157 122 108
208 166 114 54 54 76 76 68 71 92 102 107 110 115 109 100 98 91 81 73 75 83 81 74 66 57 69 80 72 84 93 90 133 143 132 115 139 153 136 123 106 77 78 63
225 190 116 81 63 68 66 57 68 99 110 111 106 108 106 109 106 101 94 83 78 83 81 74 65 62 57 62 80 89 124 148 187 146 126 112 101 65 90 78 112 115 77 94
229 205 190 158 128 98 92 74 63 64 76 84 93 102 108 107 106 105 97 85 79 87 90 84 77 68 54 50 59 75 146 210 233 181 144 147 125 87 56 61 85 89 75 70
59 47 111 123 108 94 94 81 62 63 77 90 90 97 111 110 105 97 93 88 88 80 75 82 81 67 50 48 48 359 323 322 314 317 94 115 120 129 107 71 74 82 96 104
47 43 74 89 100 91 94 84 77 74 75 91 93 96 99 101 106 107 102 104 106 93 81 77 87 71 43 43 36 352 339 10 341 331 9 38 68 116 138 172 179 168 193 198
86 120 149 147 139 126 120 108 103 99 93 90 100 101 103 99 106 108 102 111 109 101 95 73 67 55 30 21 37 11 1 10 358 345 354 18 26 3 357 5 276 159 127 159
131 156 193 175 145 127 115 135 134 125 114 100 102 107 109 108 110 110 114 112 121 120 91 80 77 65 54 40 50 58 69 41 0 339 354 4 14 2 352 344 325 27 110 77
183 198 196 175 160 147 121 116 121 118 108 105 111 117 116 117 115 102 116 124 115 108 105 98 89 79 56 23 334 272 249 172 176 310 354 28 13 347 327 306 312 328 55 101
229 214 184 174 164 143 114 107 108 105 100 101 105 110 117 121 127 119 122 128 122 110 88 67 98 107 71 24 355 304 289 295 163 160 295 293 266 266 277 254 264 307 96 124
136 130 124 134 142 126 114 101 91 86 91 105 120 133 136 132 135 133 138 139 150 149 125 101 124 136 44 29 328 270 258 228 219 227 255 251 249 256 288 308 323 359 14 61
110 103 102 95 90 97 105 101 97 93 97 115 117 125 123 125 143 146 142 151 172 166 139 114 130 56 351 25 318 287 277 254 236 234 255 265 274 287 299 309 315 337 338 345
112 106 100 98 89 81 83 88 92 106 108 129 138 154 153 159 165 168 185 179 121 98 121 148 144 70 12 334 286 285 292 292 289 272 272 300 302 299 299 298 306 315 331 348
99 102 100 92 92 79 63 62 70 84 104 133 164 174 177 183 184 177 167 154 135 123 185 152 106 69 359 310 278 286 292 299 315 326 312 308 295 292 283 294 307 317 357 14
80 95 104 99 95 87 50 44 43 103 221 219 185 183 222 220 207 191 168 150 142 153 221 127 120 121 319 284 284 301 312 314 317 315 311 305 290 301 312 320 339 352 1 355
83 79 88 113 130 137 161 230 244 249 243 217 177 175 201 198 188 171 143 141 144 168 200 147 173 213 257 259 264 280 297 303 308 318 330 330 333 347 355 354 349 342 348 350
148 158 166 186 208 209 212 210 212 217 216 192 168 175 204 182 162 141 135 139 154 178 193 180 199 223 251 265 265 268 282 307 325 324 322 328 337 353 355 349 347 343 343 340
180 191 185 217 236 233 224 212 206 208 204 195 191 188 191 174 163 161 164 180 177 190 210 191 200 212 236 250 265 286 297 314 328 335 358 350 339 341 352 350 345 347 344 340
194 193 203 223 227 234 237 222 217 211 196 188 189 187 194 181 169 175 182 191 177 182 195 199 223 238 246 255 281 304 313 317 339 346 328 314 319 335 352 350 354 1 353 354